Location: Hillbun Ditch
(38.8735°N, 119.1435°W)
Time: 05:15:32
(UTC+00:00)

Daily predictions for brighter satellites

Satellite Brightness Start Highest point End
(mag) Time Altitude Azimuth Time Altitude Azimuth Time Altitude Azimuth
FengYun 1-2 T 4.3 01:25:01 10° SSE 01:30:29 67° ENE 01:36:03 10° N
Cosmos 2058 Rocket 4.0 01:32:34 10° NNE 01:36:28 28° ENE 01:40:20 10° SE
Cosmos 1777 Rocket 4.0 01:33:21 10° S 01:38:35 74° ESE 01:43:52 10° NNE
ERS-2 3.4 01:36:49 10° NE 01:39:43 22° E 01:42:36 10° SSE
Cosmos 1939 Rocket 3.1 01:38:18 10° SSE 01:42:17 49° ENE 01:46:15 10° N
Meteor 2-5 Rocket 4.2 01:38:13 10° SSW 01:43:44 63° W 01:49:15 10° N
CORIOLIS 4.4 01:40:05 10° S 01:45:29 78° WSW 01:50:54 10° NNW
Okean 1-7 Rocket 4.1 01:41:31 10° SSE 01:45:42 38° E 01:49:55 10° NNE
Cosmos 2263 Rocket 3.6 01:42:50 10° SW 01:48:05 37° WNW 01:53:20 10° N
Cosmos 1726 Rocket 3.5 01:46:49 10° N 01:51:10 67° E 01:55:32 10° SSE
NOAA 11 4.5 01:46:48 10° S 01:52:17 76° WSW 01:57:49 10° NNW
BREEZE-M DEB (TANK) 2.8 01:50:14 10° WNW 01:53:01 52° SSW 01:56:54 10° SE
Aureole 2 Rocket 2.2 01:50:34 10° S 01:53:25 49° ESE 01:56:24 10° NNE
CZ-4 R/B 2.4 01:51:58 10° SE 01:55:23 26° ENE 01:58:47 10° NNE
Cosmos 1315 Rocket 3.5 01:52:40 10° NNW 01:56:35 58° W 02:00:32 10° S
Lacrosse 5 3.0 01:54:01 10° NNW 01:58:12 25° NNE 02:01:18 15° E
Nadezhda 4 Rocket 4.2 01:52:28 10° SSE 01:58:28 50° E 02:04:26 10° NNE
CZ-4B R/B 1.3 01:56:48 10° NNE 02:00:11 87° W 02:03:27 10° SSW
Cosmos 1689 Rocket 3.2 01:59:18 17° NE 02:00:41 23° E 02:03:03 10° SSE
Hubble Space Telescope 3.0 01:59:11 10° SSW 02:01:49 17° S 02:04:29 10° SE
ARGOS 4.2 01:59:01 10° ESE 02:03:06 23° ENE 02:07:12 10° NNE
ATLAS 3B R/B 4.0 02:00:57 10° NW 02:07:36 46° WSW 02:14:29 10° S
COSMO-SKYMED 1 2.6 02:06:04 10° N 02:10:25 84° WNW 02:14:46 10° SSW
CZ-4 R/B 4.4 02:06:41 10° SSE 02:10:45 60° ENE 02:14:49 10° N
Meteor 2-13 Rocket 4.4 02:08:19 10° S 02:14:19 65° E 02:20:24 10° NNE
Cosmos 1943 4.4 02:09:02 10° NW 02:14:25 45° WSW 02:19:43 10° S
CZ-2C R/B 3.8 02:13:16 17° NE 02:16:04 24° E 02:20:29 10° SSE
IRS-1C Rocket 4.0 02:13:05 10° SSE 02:18:18 70° ENE 02:23:33 10° N
Okean-O 2.9 02:14:54 10° SE 02:19:06 44° ENE 02:23:20 10° N
Cosmos 1844 3.6 02:15:39 10° SSW 02:21:13 69° ESE 02:26:53 10° NNE
Okean O Rocket 3.6 02:17:29 10° SSW 02:21:27 32° W 02:25:26 10° NNW
COSMOS 2455 3.5 02:17:00 10° SW 02:22:53 55° WNW 02:28:49 10° NNE
CZ-2D R/B 3.4 02:21:30 10° S 02:25:20 75° WSW 02:29:12 10° NNW
SAR-Lupe-4 3.4 02:23:02 12° NNE 02:26:21 71° ESE 02:29:54 10° S
EXPRESS MD2 4.0 02:21:44 10° NW 02:29:00 56° NNE 02:30:47 31° E
Cosmos 1602 Rocket 3.6 02:31:17 10° SSE 02:35:27 49° E 02:37:46 24° NNE
Cosmos 2026 Rocket 4.2 02:29:46 10° SSE 02:35:29 45° E 02:41:18 10° NNE
SAR-Lupe-1 4.0 02:34:06 14° N 02:37:10 83° WNW 02:40:43 10° SSW
CZ-2C R/B 3.3 02:32:30 10° S 02:37:41 73° WSW 02:43:13 10° NNW
H-2A R/B 1.9 02:33:07 10° SSE 02:38:01 65° ENE 02:43:02 10° N
YAOGAN 1 2.4 02:34:39 10° SSE 02:38:56 72° ENE 02:43:15 10° N
Helios 1A Rocket 2.9 02:35:14 10° SSE 02:39:16 55° ENE 02:43:20 10° N
Cosmos 923 Rocket 4.1 02:35:27 10° N 02:40:40 52° ENE 02:45:49 10° SE
Cosmos 1844 Rocket 3.1 02:36:31 10° SSW 02:42:08 64° WNW 02:47:46 10° NNE
Cosmos 158 Rocket 4.0 02:38:01 10° NNW 02:43:19 61° ENE 02:48:38 10° SSE
Cosmos 1898 Rocket 3.6 02:38:14 10° S 02:43:20 52° ESE 02:45:28 32° NE
X-37B 1.3 02:43:50 10° W 02:46:54 43° NNW 02:46:57 43° NNW
Cosmos 1680 Rocket 3.7 02:42:52 10° N 02:47:54 45° ENE 02:48:55 40° E
Meteor 1-21 Rocket 4.2 02:42:56 10° SSW 02:48:27 79° W 02:54:01 10° N
Cosmos 2098 Rocket 4.4 02:44:42 10° SSE 02:51:20 52° E 02:58:30 10° NNE
Cosmos 2278 Rocket 3.6 02:47:30 10° SSE 02:50:05 21° SE 02:50:05 21° SE
Cosmos 1818 4.5 02:48:59 10° SW 02:54:11 46° NW 02:58:15 16° NNE
SJ 16-02 2.6 02:53:06 10° SW 02:57:15 40° WNW 03:01:11 11° N
NOSS 2-1 (C) 3.1 02:54:17 10° SSW 02:57:19 66° SSW 02:57:19 66° SSW
Cosmos 1455 2.9 02:54:24 10° NNW 02:58:08 54° W 03:01:52 10° S
Cosmos 1340 2.9 02:56:54 10° S 02:59:55 56° S 02:59:55 56° S
Cosmos 2195 Rocket 4.4 02:54:48 10° S 03:01:07 87° E 03:07:30 10° N
Cosmos 1703 3.6 02:58:46 10° SSW 03:02:37 63° W 03:04:09 33° NNW
ISS -1.8 03:00:02 10° W 03:02:46 23° NNW 03:02:46 23° NNW
USA 267 3.2 03:01:01 40° ENE 03:03:26 64° SE 03:09:54 10° SSW
NOSS 2-1 (D) 3.4 03:00:11 10° SW 03:03:03 57° SW 03:03:03 57° SW
CSL-04 Rocket 3.5 02:59:27 10° SSE 03:04:48 76° ENE 03:10:16 10° N
Meteor 2-8 Rocket 4.3 02:59:25 10° N 03:05:30 71° E 03:11:36 10° SSE
SJ-11-01 4.4 03:00:54 10° S 03:05:35 72° WSW 03:10:17 10° NNW
Iridium 4 Rocket 3.4 03:02:11 10° N 03:07:50 83° E 03:13:00 10° S
Cosmos 1627 Rocket 4.4 03:05:32 10° S 03:11:41 87° W 03:17:58 10° N
Cosmos 1428 Rocket 4.4 03:09:25 10° S 03:15:41 87° W 03:22:02 10° N
Cosmos 1937 Rocket 3.3 03:12:43 10° SSW 03:18:00 79° ESE 03:18:02 78° E
Cosmos 2112 Rocket 4.2 03:20:15 10° NNW 03:24:32 60° N 03:24:32 60° N
CZ-4 R/B 3.8 03:27:04 10° SSW 03:30:20 22° W 03:33:35 10° NW
Cosmos 44 4.0 03:26:06 10° SW 03:30:40 48° NW 03:31:10 46° NW
USA 234 4.3 03:37:03 30° N 03:37:03 30° N 03:41:38 10° NNW
Cosmos 2344 4.4 03:27:24 10° NNW 03:36:58 60° NE 03:40:04 49° E
Lacrosse 5 2.5 03:36:32 10° NW 03:40:34 52° WNW 03:40:34 52° WNW
Hubble Space Telescope 3.4 03:39:26 10° SW 03:40:42 15° SSW 03:40:42 15° SSW
ARGOS 4.1 03:37:57 10° S 03:43:03 44° W 03:48:10 10° NNW
CZ-3B R/B 3.3 03:41:42 10° NW 04:06:14 - SE 03:44:08 50° NNW
CZ-2C R/B 3.7 03:54:46 34° NNW 03:56:28 44° WNW 04:01:44 10° SW
Cosmos 2278 Rocket 4.5 04:30:35 10° SW 04:32:01 18° SW 04:32:01 18° SW
Atlas Centaur 2 4.4 11:39:07 25° SE 11:39:07 25° SE 11:44:43 10° ESE
